Location: Endfield
(51.6667°N, 0.0667°W)
Time: 04:19:33
(UTC+00:00)

Cosmos 2034 Rocket - Pass Details

Date: 19 May 2024
Orbit: 956 x 1001 km, 82.9° (Epoch: 22 May)

Event Time Altitude Azimuth Distance (km) Brightness Sun altitude
Rises 20:46:29 0° 349° (NNW) 3,660 8.1 -7.2°
Reaches altitude 10° 20:48:59 10° 348° (NNW) 2,714 7.4 -7.4°
Maximum altitude 20:55:12 78° 263° (W) 996 4.2 -8.1°
Drops below altitude 10° 21:01:26 10° 178° (S) 2,725 5.9 -8.7°
Enters shadow 21:03:16 - 178° (S) 3,416 6.4 -8.9°
